Satellite: MET-3/5
Catalog number: 21655
Epoch time:      08366.56129318
Element set:     536
Inclination:      082.5525 deg
RA of node:       324.9280 deg
Eccentricity:    0.0012210
Arg of perigee:   240.2348 deg
Mean anomaly:     119.7560 deg
Mean motion:   13.17017466 rev/day
Decay rate:        5.1e-07 rev/day^2
Epoch rev:           83556
Checksum:              292

Satellite: MET-2/21
Catalog number: 22782
Epoch time:      09001.85678564
Element set:     340
Inclination:      082.5497 deg
RA of node:       313.9592 deg
Eccentricity:    0.0024071
Arg of perigee:   092.3606 deg
Mean anomaly:     268.0322 deg
Mean motion:   13.83632938 rev/day
Decay rate:        7.5e-07 rev/day^2
Epoch rev:           77460
Checksum:              315

Satellite: OKEAN-4
Catalog number: 23317
Epoch time:      09001.00201330
Element set:     788
Inclination:      082.5399 deg
RA of node:       130.5021 deg
Eccentricity:    0.0021694
Arg of perigee:   191.5200 deg
Mean anomaly:     168.5557 deg
Mean motion:   14.82664306 rev/day
Decay rate:       3.63e-06 rev/day^2
Epoch rev:           76759
Checksum:              283

Satellite: NOAA-14
Catalog number: 23455
Epoch time:      09001.50078107
Element set:     458
Inclination:      098.9278 deg
RA of node:       079.6552 deg
Eccentricity:    0.0008655
Arg of perigee:   305.5883 deg
Mean anomaly:     054.4503 deg
Mean motion:   14.13753422 rev/day
Decay rate:      -2.44e-06 rev/day^2
Epoch rev:           72237
Checksum:              307

Satellite: NOAA-15
Catalog number: 25338
Epoch time:      09001.12201793
Element set:     756
Inclination:      098.5717 deg
RA of node:       354.1164 deg
Eccentricity:    0.0010604
Arg of perigee:   180.1745 deg
Mean anomaly:     179.9411 deg
Mean motion:   14.24739248 rev/day
Decay rate:       -1.9e-07 rev/day^2
Epoch rev:           55298
Checksum:              305

Satellite: RESURS
Catalog number: 25394
Epoch time:      08366.74025925
Element set:     107
Inclination:      098.3600 deg
RA of node:       041.4300 deg
Eccentricity:    0.0001857
Arg of perigee:   010.9351 deg
Mean anomaly:     349.1868 deg
Mean motion:   14.24177712 rev/day
Decay rate:       -1.0e-07 rev/day^2
Epoch rev:           54456
Checksum:              277

Satellite: FENGYUN1
Catalog number: 25730
Epoch time:      08366.92339433
Element set:     651
Inclination:      098.7419 deg
RA of node:       336.2168 deg
Eccentricity:    0.0022994
Arg of perigee:   330.2447 deg
Mean anomaly:     029.7413 deg
Mean motion:   14.07914268 rev/day
Decay rate:       1.52e-06 rev/day^2
Epoch rev:           49678
Checksum:              324

Satellite: OKEAN-0
Catalog number: 25860
Epoch time:      08366.99214097
Element set:     563
Inclination:      097.7678 deg
RA of node:       348.9915 deg
Eccentricity:    0.0001503
Arg of perigee:   045.0711 deg
Mean anomaly:     315.0618 deg
Mean motion:   14.73551582 rev/day
Decay rate:        1.0e-07 rev/day^2
Epoch rev:           50852
Checksum:              306

Satellite: NOAA-16
Catalog number: 26536
Epoch time:      09001.19297388
Element set:     232
Inclination:      099.1712 deg
RA of node:       000.8635 deg
Eccentricity:    0.0010820
Arg of perigee:   033.9078 deg
Mean anomaly:     326.2821 deg
Mean motion:   14.12507301 rev/day
Decay rate:       2.57e-06 rev/day^2
Epoch rev:           42672
Checksum:              278

Satellite: NOAA-17
Catalog number: 27453
Epoch time:      09001.05748933
Element set:     244
Inclination:      098.5103 deg
RA of node:       065.6982 deg
Eccentricity:    0.0010917
Arg of perigee:   249.2643 deg
Mean anomaly:     110.7343 deg
Mean motion:   14.24030012 rev/day
Decay rate:       1.57e-06 rev/day^2
Epoch rev:           33896
Checksum:              286

Satellite: NOAA-18
Catalog number: 28654
Epoch time:      09001.50566668
Element set:     728
Inclination:      098.8920 deg
RA of node:       306.1943 deg
Eccentricity:    0.0015087
Arg of perigee:   112.0141 deg
Mean anomaly:     248.2618 deg
Mean motion:   14.11220755 rev/day
Decay rate:      -1.57e-06 rev/day^2
Epoch rev:           18644
Checksum:              302

/EX
SB KEPS @ AMSAT  $ORB09001.M
Orbital Elements  09001.MISC

HR AMSAT ORBITAL ELEMENTS FOR MANNED AND MISCELLANEOUS SATELLITES
FROM WA5QGD FORT WORTH,TX January 1, 2009
Send Subscribe/unsubscribe to KEPS at 
http://www.amsat.org/mailman/listinfo/keps
BID: ORB09001.M
TO ALL RADIO AMATEURS BT

Satellite: HUBBLE
Catalog number: 20580
Epoch time:      09001.69906998
Element set:     296
Inclination:      028.4688 deg
RA of node:       108.4140 deg
Eccentricity:    0.0003438
Arg of perigee:   329.8076 deg
Mean anomaly:     030.2315 deg
Mean motion:   15.00442985 rev/day
Decay rate:       2.71e-06 rev/day^2
Epoch rev:           82482
Checksum:              300

Satellite: PO-34
Catalog number: 25520
Epoch time:      09001.91196810
Element set:     155
Inclination:      028.4612 deg
RA of node:       288.2570 deg
Eccentricity:    0.0005234
Arg of perigee:   289.3678 deg
Mean anomaly:     070.6351 deg
Mean motion:   15.17278599 rev/day
Decay rate:       4.25e-06 rev/day^2
Epoch rev:           56337
Checksum:              310

